Find Ekspress AM-11

NORAD ID: 28234 Int'l Des: 2004-015 Owner: KS Country: RU operational
HEOCIRCULAR

リアルタイム位置

3D地球を読み込み中...

Ekspress AM-11について

説明を読み込み中...

次回通過

Passes for default location (London). Set your location on the main map for personalized predictions.

高度履歴

Loading altitude history...

軌道要素

1 28234U 04015A 26119.58733074 -.00000317 00000-0 00000-0 0 9997
2 28234 12.9308 23.6750 0007389 298.6132 244.9030 0.99238540 79935
Epoch: Apr 29, 2026 • Age: 33 hours

現在のステータス

高度 36050.6 km
速度 3.07 km/s
衛星直下点 -8.58°S, 133.82°E
打ち上げ日 Apr 26, 2004
運用期間 22 years
タイプ other

技術仕様

分類 Payload
質量 2543.00 kg
乾燥質量 2200.00 kg
総質量 2543.00 kg
長さ 2.00 m
直径 2.00 m
スパン 27.00 m
形状 Cyl + 2 Pan
製造者 NPOPMR
バスタイプ Ekspress
フェーズステータス In Orbit
所有者/国 KS/RU

Most Searched